Find Kuiper-00120

NORAD ID: 65762 Int'l Des: 2025-217 Owner: KUIP Country: US Constellation: amazon-leo operational
LEOCIRCULAR

当前视图

正在加载3D地球...

关于 Kuiper-00120

正在加载描述...

即将过境

Passes for default location (London). Set your location on the main map for personalized predictions.

高度历史

Loading altitude history...

两行轨道根数

1 65762U 25217A 26148.96546743 .00002729 00000-0 38681-3 0 9997
2 65762 51.9009 58.0803 0000630 98.3857 261.7177 14.79933591 36624
Epoch: May 28, 2026 • Age: 26 hours

当前状态

高度 646.9 km
速度 7.53 km/s
星下点 -49.40°S, 88.83°E
发射日期 Sep 25, 2025
运行时间 0.6 years
类型 internet

技术详情

分类 Payload
质量 490.00 kg
干质量 490.00 kg
总质量 490.00 kg
长度 1.80 m
直径 0.70 m
跨度 5.00 m
形状 Box + 2 pan
制造商 KUIP
平台类型 Kuiper
阶段状态 In Orbit
所有者/国家 KUIP/US

Most Searched